Location: Newark
(36.9704°N, 37.9978°E)
Time: 08:05:27
(UTC+00:00)

X-37B - Visible Passes

Search period start: 01 October 2020 00:00
Search period end: 11 October 2020 00:00
Orbit: 386 x 387 km, 45.0° (Epoch: 18 September)

Date Brightness Start Highest point End Pass type
(mag) Time Alt. Az. Time Alt. Az. Time Alt. Az.
01 Oct 2.1 16:59:57 10° WSW 17:01:50 33° WSW 17:01:50 33° WSW visible
02 Oct 1.0 16:01:33 10° SW 16:04:35 44° SE 16:06:19 21° E visible
02 Oct 4.1 17:38:24 10° W 17:38:37 11° W 17:38:37 11° W visible
03 Oct 1.2 16:39:30 10° W 16:42:36 49° NNW 16:42:58 46° N visible
04 Oct 0.6 15:40:49 10° WSW 15:43:59 90° S 15:47:10 10° ENE visible
04 Oct 3.5 17:18:16 10° WNW 17:19:29 17° NW 17:19:29 17° NW visible
05 Oct 2.1 16:19:16 10° W 16:22:09 31° NNW 16:23:38 21° NNE visible
06 Oct 3.0 16:58:10 10° NW 16:59:59 19° NNW 16:59:59 19° NNW visible
07 Oct 2.5 15:59:09 10° WNW 16:01:46 23° NNW 16:04:00 12° NE visible
08 Oct 2.7 16:37:56 10° NW 16:40:16 18° N 16:40:16 18° N visible
09 Oct 2.7 15:39:01 10° NW 15:41:27 19° N 15:43:51 10° NE visible
09 Oct 3.8 17:16:10 10° NW 17:16:30 12° NW 17:16:30 12° NW visible
10 Oct 2.5 16:17:33 10° NW 16:19:58 19° N 16:20:29 19° NNE visible
